Fort Leonard Wood, MO

9:08 PM CST on December 09, 2019 (GMT -0600)
Waynesville Regional At Forney Field

Weather History for KTBN - November, 2019

Change the Weather History Date:

Sunday, November 17, 2019

  Actual Average Record
Temperature  
Mean Temperature 42 °F -  
Max Temperature 48 °F 53 °F 78 °F (2016)
Min Temperature 36 °F 38 °F 14 °F (2014)
Degree Days  
Heating Degree Days 23    
Moisture  
Dew Point 33 °F    
Average Humidity 64    
Maximum Humidity 76    
Minimum Humidity 47    
Precipitation  
Precipitation 0.00 in - - ()
Sea Level Pressure  
Sea Level Pressure 29.99 in    
Wind  
Wind Speed 6 mph (SW)    
Max Wind Speed 9 mph    
Max Gust Speed -    
Visibility 10 miles    
Events      
Averages and records for this station are not official NWS values.
T = Trace of Precipitation, MM = Missing Value Source: NWS Daily Summary

Daily Weather History Graph

Daily Weather History Graph

Search for Another Location

Airport or City:

Astronomy

Nov. 17, 2019 Rise Set
Actual Time 6:50 AM CST 4:56 PM CST
Civil Twilight 6:22 AM CST 5:24 PM CST
Nautical Twilight 5:50 AM CST 5:55 PM CST
Astronomical Twilight 5:19 AM CST 6:27 PM CST
Moon 9:34 PM CST (11/17) 11:35 AM CST (11/17)
Length of Visible Light 11h 01m
Length of Day
10h 05m
Waning Gibbous, 73% of the Moon is Illuminated
Nov 17
Waning Gibbous
Nov 19
Last Quarter
Nov 26
New
Dec 4
First Quarter
Dec 11
Full

Hourly Weather History & Observations

Time (CST) Temp. Windchill Dew Point Humidity Pressure Visibility Wind Dir Wind Speed Gust Speed Precip Events Conditions
12:56 AM 37.0 °F 31.6 °F 29.5 °F 74% 30.11 in 10.0 mi SE 6.9 mph - N/A   Clear
2:56 AM 36.7 °F 30.5 °F 29.5 °F 75% 30.09 in 10.0 mi SE 8.1 mph - N/A   Partly Cloudy
3:56 AM 36.5 °F 32.7 °F 29.7 °F 76% 30.09 in 10.0 mi SSW 4.6 mph - N/A   Mostly Cloudy
4:56 AM 38.8 °F 33.2 °F 30.2 °F 71% 30.07 in 10.0 mi South 8.1 mph - N/A   Overcast
5:56 AM 38.8 °F 35.4 °F 30.9 °F 73% 30.05 in 10.0 mi SSE 4.6 mph - N/A   Partly Cloudy
6:56 AM 38.3 °F 33.9 °F 31.5 °F 76% 30.06 in 10.0 mi South 5.8 mph - N/A   Scattered Clouds
7:56 AM 40.3 °F 36.3 °F 31.6 °F 71% 30.06 in 10.0 mi South 5.8 mph - N/A   Partly Cloudy
8:56 AM 43.5 °F 39.4 °F 32.2 °F 64% 30.05 in 10.0 mi South 6.9 mph - N/A   Partly Cloudy
9:56 AM 46.0 °F 44.8 °F 31.6 °F 57% 30.02 in 10.0 mi South 3.5 mph - N/A   Clear
10:56 AM 48.6 °F - 30.7 °F 50% 29.99 in 10.0 mi SW 8.1 mph - N/A   Clear
11:56 AM 48.7 °F - 29.8 °F 48% 29.99 in 10.0 mi SW 6.9 mph - N/A   Clear
12:48 PM 48.2 °F - 30.2 °F 50% 29.95 in 10.0 mi SSW 4.6 mph - N/A   Light Drizzle
12:55 PM 48.2 °F - 30.2 °F 50% 29.95 in 10.0 mi South 5.8 mph - N/A   Partly Cloudy
1:56 PM 48.7 °F - 29.5 °F 47% 29.93 in 10.0 mi WSW 8.1 mph - N/A   Mostly Cloudy
1:58 PM 48.2 °F - 30.2 °F 50% 29.93 in 10.0 mi West 5.8 mph - N/A   Light Drizzle
2:10 PM 48.2 °F - 30.2 °F 50% 29.92 in 10.0 mi SW 5.8 mph - N/A   Mostly Cloudy
3:56 PM 48.0 °F - 32.2 °F 54% 29.94 in 10.0 mi WNW 8.1 mph - N/A   Mostly Cloudy
4:56 PM 46.4 °F 45.2 °F 33.3 °F 60% 29.94 in 10.0 mi West 3.5 mph - N/A   Mostly Cloudy
5:46 PM 46.4 °F - 33.8 °F 62% 29.94 in 10.0 mi Calm Calm - N/A   Overcast
5:56 PM 46.4 °F - 33.6 °F 61% 29.94 in 10.0 mi Calm Calm - N/A   Overcast
6:56 PM 46.0 °F - 34.5 °F 64% 29.95 in 10.0 mi Calm Calm - N/A   Overcast
7:46 PM 46.4 °F 42.4 °F 35.6 °F 66% 29.96 in 10.0 mi NW 8.1 mph - N/A   Overcast
7:56 PM 46.4 °F 42.4 °F 36.5 °F 68% 29.97 in 10.0 mi NW 8.1 mph - N/A   Overcast
8:01 PM 46.4 °F 42.4 °F 37.4 °F 71% 29.97 in 10.0 mi NW 8.1 mph - N/A   Overcast
8:16 PM 46.4 °F 41.9 °F 37.4 °F 71% 29.97 in 10.0 mi NW 9.2 mph - N/A   Overcast
8:56 PM 45.9 °F 42.3 °F 38.1 °F 74% 29.96 in 10.0 mi NW 6.9 mph - N/A   Overcast
9:56 PM 45.3 °F 43.0 °F 38.1 °F 76% 29.96 in 10.0 mi NW 4.6 mph - N/A   Overcast
10:56 PM 45.1 °F - 37.0 °F 73% 29.95 in 10.0 mi Calm Calm - N/A   Overcast
11:56 PM 44.1 °F 42.5 °F 35.2 °F 71% 29.93 in 10.0 mi WSW 3.5 mph - N/A   Overcast